Time,TemperatureF,DewpointF,PressureIn,WindDirection,WindDirectionDegrees,WindSpeedMPH,WindSpeedGustMPH,Humidity,HourlyPrecipIn,Conditions,Clouds,dailyrainin,SoftwareType,DateUTC
2013-01-25 00:03:00,47.7,44.6,29.65,NNE,22,0.0,0.0,89,0.00,,SCT,0.00,WUHU21623XXSP,2013-01-24 22:03:00,
2013-01-25 00:05:00,47.5,44.4,29.65,NNE,22,2.0,2.0,89,0.00,,SCT,0.00,WUHU21623XXSP,2013-01-24 22:05:00,
2013-01-25 00:27:00,47.1,44.0,29.64,NNW,338,0.0,0.0,89,0.00,,SCT,0.00,WUHU21623XXSP,2013-01-24 22:27:00,
2013-01-25 01:27:00,46.4,43.3,29.64,North,0,0.0,0.0,89,0.00,,SCT,0.00,WUHU21623XXSP,2013-01-24 23:27:00,
2013-01-25 02:27:00,45.5,42.7,29.65,NNE,23,0.0,0.0,90,0.00,,SCT,0.00,WUHU21623XXSP,2013-01-25 00:27:00,
2013-01-25 03:27:00,45.1,42.6,29.64,NNW,338,0.0,0.0,91,0.00,,FEW,0.00,WUHU21623XXSP,2013-01-25 01:27:00,
2013-01-25 04:27:00,44.2,41.7,29.65,NNW,338,0.0,0.0,91,0.00,,FEW,0.00,WUHU21623XXSP,2013-01-25 02:27:00,
2013-01-25 05:27:00,46.8,44.0,29.64,North,0,0.0,0.0,90,0.00,,FEW,0.00,WUHU21623XXSP,2013-01-25 03:27:00,
2013-01-25 06:27:00,45.1,40.8,29.65,NE,45,0.0,0.0,85,0.00,,FEW,0.00,WUHU21623XXSP,2013-01-25 04:27:00,
2013-01-25 07:27:00,43.5,39.0,29.66,North,0,0.0,0.0,84,0.00,,FEW,0.00,WUHU21623XXSP,2013-01-25 05:27:00,
2013-01-25 08:07:00,44.1,39.6,29.66,NNE,22,4.4,4.4,84,0.00,,FEW,0.00,WUHU21623XXSP,2013-01-25 06:07:00,
2013-01-25 08:08:00,44.1,39.6,29.66,ENE,67,0.0,4.4,84,0.00,,FEW,0.00,WUHU21623XXSP,2013-01-25 06:08:00,
2013-01-25 08:13:00,44.2,39.4,29.66,NE,45,0.0,4.9,83,0.00,,FEW,0.00,WUHU21623XXSP,2013-01-25 06:13:00,
2013-01-25 08:18:00,44.6,39.1,29.65,North,0,2.4,6.6,81,0.00,,FEW,0.00,WUHU21623XXSP,2013-01-25 06:18:00,
2013-01-25 08:23:00,44.8,39.3,29.66,ENE,67,0.0,6.6,81,0.00,,FEW,0.00,WUHU21623XXSP,2013-01-25 06:23:00,
2013-01-25 08:28:00,45.0,39.2,29.65,NE,45,1.0,6.6,80,0.00,,FEW,0.00,WUHU21623XXSP,2013-01-25 06:28:00,
2013-01-25 08:33:00,45.1,39.0,29.65,North,0,2.8,6.6,79,0.00,,FEW,0.00,WUHU21623XXSP,2013-01-25 06:33:00,
2013-01-25 08:39:00,45.5,39.1,29.65,NNE,22,0.0,4.4,78,0.00,,FEW,0.00,WUHU21623XXSP,2013-01-25 06:39:00,
2013-01-25 08:44:00,45.5,39.1,29.65,NNE,22,3.0,4.4,78,0.00,,FEW,0.00,WUHU21623XXSP,2013-01-25 06:44:00,
2013-01-25 08:49:00,45.9,39.5,29.66,North,0,2.2,4.9,78,0.00,,SCT,0.00,WUHU21623XXSP,2013-01-25 06:49:00,
2013-01-25 08:54:00,46.0,41.1,29.66,North,0,2.2,4.9,83,0.00,,SCT,0.00,WUHU21623XXSP,2013-01-25 06:54:00,
2013-01-25 08:59:00,46.0,41.1,29.66,North,0,0.0,4.4,83,0.00,,SCT,0.00,WUHU21623XXSP,2013-01-25 06:59:00,
2013-01-25 09:04:00,46.0,41.1,29.66,North,0,1.0,6.4,83,0.00,,SCT,0.00,WUHU21623XXSP,2013-01-25 07:04:00,
2013-01-25 09:09:00,46.0,41.1,29.66,NNE,22,1.4,6.4,83,0.00,,SCT,0.00,WUHU21623XXSP,2013-01-25 07:09:00,
2013-01-25 09:14:00,45.9,41.0,29.66,North,0,2.4,6.2,83,0.00,,SCT,0.00,WUHU21623XXSP,2013-01-25 07:14:00,
2013-01-25 09:19:00,46.0,41.4,29.65,North,0,1.4,4.9,84,0.00,,SCT,0.00,WUHU21623XXSP,2013-01-25 07:19:00,
2013-01-25 09:24:00,46.6,42.0,29.65,NNE,22,1.4,4.9,84,0.00,,SCT,0.00,WUHU21623XXSP,2013-01-25 07:24:00,
2013-01-25 09:29:00,46.6,42.0,29.66,NNE,22,2.4,6.6,84,0.00,,SCT,0.00,WUHU21623XXSP,2013-01-25 07:29:00,
2013-01-25 09:34:00,46.9,42.6,29.66,NNE,22,3.7,6.6,85,0.00,,SCT,0.00,WUHU21623XXSP,2013-01-25 07:34:00,
2013-01-25 09:39:00,47.5,42.9,29.66,North,0,1.2,4.7,84,0.00,,SCT,0.00,WUHU21623XXSP,2013-01-25 07:39:00,
2013-01-25 09:44:00,48.0,43.4,29.65,NNE,22,2.4,4.0,84,0.00,,SCT,0.00,WUHU21623XXSP,2013-01-25 07:44:00,
2013-01-25 09:49:00,48.9,44.3,29.66,NNE,22,4.0,6.4,84,0.00,,SCT,0.00,WUHU21623XXSP,2013-01-25 07:49:00,
2013-01-25 09:54:00,50.2,44.9,29.65,NNE,22,4.2,6.4,82,0.00,,SCT,0.00,WUHU21623XXSP,2013-01-25 07:54:00,
2013-01-25 09:59:00,50.9,45.3,29.66,ENE,67,2.8,5.4,81,0.00,,SCT,0.00,WUHU21623XXSP,2013-01-25 07:59:00,
2013-01-25 10:04:00,52.0,45.7,29.66,NNE,22,1.4,4.9,79,0.00,,SCT,0.00,WUHU21623XXSP,2013-01-25 08:04:00,
2013-01-25 10:09:00,52.7,44.7,29.66,North,0,3.2,4.9,74,0.00,,SCT,0.00,WUHU21623XXSP,2013-01-25 08:09:00,
2013-01-25 10:14:00,53.2,44.5,29.66,NE,45,2.8,4.9,72,0.00,,SCT,0.00,WUHU21623XXSP,2013-01-25 08:14:00,
2013-01-25 10:19:00,54.0,43.8,29.66,NNE,22,0.0,4.0,68,0.00,,SCT,0.00,WUHU21623XXSP,2013-01-25 08:19:00,
2013-01-25 10:24:00,54.5,44.3,29.65,NW,315,2.0,4.0,68,0.00,,SCT,0.00,WUHU21623XXSP,2013-01-25 08:24:00,
2013-01-25 10:29:00,54.9,44.3,29.66,North,0,4.4,4.4,67,0.00,,SCT,0.00,WUHU21623XXSP,2013-01-25 08:29:00,
2013-01-25 10:34:00,55.6,44.5,29.65,North,0,2.4,6.2,66,0.00,,SCT,0.00,WUHU21623XXSP,2013-01-25 08:34:00,
2013-01-25 10:39:00,55.9,44.0,29.65,NNE,22,0.0,6.2,64,0.00,,SCT,0.00,WUHU21623XXSP,2013-01-25 08:39:00,
2013-01-25 10:44:00,56.3,43.6,29.65,NNE,22,4.4,5.6,62,0.00,,SCT,0.00,WUHU21623XXSP,2013-01-25 08:44:00,
2013-01-25 10:49:00,56.7,43.5,29.65,North,0,2.4,5.6,61,0.00,,SCT,0.00,WUHU21623XXSP,2013-01-25 08:49:00,
2013-01-25 10:54:00,56.8,42.7,29.64,North,0,0.0,4.0,59,0.00,,SCT,0.00,WUHU21623XXSP,2013-01-25 08:54:00,
2013-01-25 10:59:00,57.4,42.8,29.64,NNW,337,0.0,3.4,58,0.00,,SCT,0.00,WUHU21623XXSP,2013-01-25 08:59:00,
2013-01-25 11:04:00,57.6,43.0,29.64,West,270,0.0,2.8,58,0.00,,SCT,0.00,WUHU21623XXSP,2013-01-25 09:04:00,
2013-01-25 11:09:00,57.4,42.8,29.64,NW,315,0.0,2.8,58,0.00,,SCT,0.00,WUHU21623XXSP,2013-01-25 09:09:00,
2013-01-25 11:14:00,57.7,42.7,29.64,SE,135,0.0,2.0,57,0.00,,SCT,0.00,WUHU21623XXSP,2013-01-25 09:14:00,
2013-01-25 11:19:00,57.9,42.9,29.64,NW,315,1.0,4.9,57,0.00,,SCT,0.00,WUHU21623XXSP,2013-01-25 09:19:00,
2013-01-25 11:24:00,57.9,42.4,29.63,South,180,7.4,11.3,56,0.00,,SCT,0.00,WUHU21623XXSP,2013-01-25 09:24:00,
2013-01-25 11:29:00,57.9,41.4,29.63,SE,135,3.0,14.3,54,0.00,,SCT,0.00,WUHU21623XXSP,2013-01-25 09:29:00,
2013-01-25 11:34:00,58.1,41.6,29.63,SSE,157,11.6,15.0,54,0.00,,SCT,0.00,WUHU21623XXSP,2013-01-25 09:34:00,
2013-01-25 11:39:00,57.9,41.4,29.63,WNW,292,0.0,15.0,54,0.00,,SCT,0.00,WUHU21623XXSP,2013-01-25 09:39:00,
2013-01-25 11:44:00,57.9,40.9,29.63,SW,225,2.8,12.5,53,0.00,,SCT,0.00,WUHU21623XXSP,2013-01-25 09:44:00,
2013-01-25 11:49:00,57.9,43.3,29.64,SSW,202,6.4,12.5,58,0.00,,SCT,0.00,WUHU21623XXSP,2013-01-25 09:49:00,
2013-01-25 11:54:00,57.9,42.9,29.63,ESE,112,0.0,9.6,57,0.00,,SCT,0.00,WUHU21623XXSP,2013-01-25 09:54:00,
2013-01-25 11:59:00,58.5,43.4,29.63,South,180,2.0,11.3,57,0.00,,SCT,0.00,WUHU21623XXSP,2013-01-25 09:59:00,
2013-01-25 12:04:00,58.5,43.4,29.63,SW,225,4.0,15.9,57,0.00,,SCT,0.00,WUHU21623XXSP,2013-01-25 10:04:00,
2013-01-25 12:09:00,58.3,43.2,29.62,SSW,202,11.1,15.9,57,0.00,,SCT,0.00,WUHU21623XXSP,2013-01-25 10:09:00,
2013-01-25 12:14:00,58.5,43.9,29.62,South,180,9.8,14.5,58,0.00,,SCT,0.00,WUHU21623XXSP,2013-01-25 10:14:00,
2013-01-25 12:19:00,58.5,44.3,29.62,SE,135,7.2,18.7,59,0.00,,SCT,0.00,WUHU21623XXSP,2013-01-25 10:19:00,
2013-01-25 12:24:00,58.1,44.0,29.62,South,180,9.6,18.7,59,0.00,,SCT,0.00,WUHU21623XXSP,2013-01-25 10:24:00,
2013-01-25 12:29:00,58.5,44.8,29.61,SSE,157,10.6,14.7,60,0.00,,SCT,0.00,WUHU21623XXSP,2013-01-25 10:29:00,
2013-01-25 12:34:00,58.8,44.6,29.60,SW,225,4.9,18.3,59,0.00,,SCT,0.00,WUHU21623XXSP,2013-01-25 10:34:00,
2013-01-25 12:39:00,59.2,45.0,29.60,SE,135,4.7,18.3,59,0.00,,BKN,0.00,WUHU21623XXSP,2013-01-25 10:39:00,
2013-01-25 12:44:00,59.2,45.4,29.60,South,180,5.9,17.5,60,0.00,,BKN,0.00,WUHU21623XXSP,2013-01-25 10:44:00,
2013-01-25 12:49:00,58.6,44.9,29.60,SW,225,4.0,20.1,60,0.00,,BKN,0.00,WUHU21623XXSP,2013-01-25 10:49:00,
2013-01-25 12:54:00,58.3,45.0,29.60,SSE,157,10.6,20.1,61,0.00,,BKN,0.00,WUHU21623XXSP,2013-01-25 10:54:00,
2013-01-25 12:59:00,57.9,45.1,29.60,South,180,5.9,22.1,62,0.00,,BKN,0.00,WUHU21623XXSP,2013-01-25 10:59:00,
2013-01-25 13:04:00,57.9,45.9,29.59,SSE,157,5.6,22.1,64,0.00,,BKN,0.00,WUHU21623XXSP,2013-01-25 11:04:00,
2013-01-25 13:09:00,57.9,45.9,29.59,NE,45,1.8,20.1,64,0.00,,BKN,0.00,WUHU21623XXSP,2013-01-25 11:09:00,
2013-01-25 13:14:00,57.7,46.2,29.59,SSE,157,10.3,22.7,65,0.00,,BKN,0.00,WUHU21623XXSP,2013-01-25 11:14:00,
2013-01-25 13:19:00,57.4,46.7,29.59,SW,225,7.9,22.7,67,0.00,,BKN,0.00,WUHU21623XXSP,2013-01-25 11:19:00,
2013-01-25 13:24:00,56.3,47.1,29.59,South,180,1.8,24.6,71,0.01,,BKN,0.01,WUHU21623XXSP,2013-01-25 11:24:00,
2013-01-25 13:29:00,55.8,48.8,29.58,ENE,67,4.2,24.6,77,0.01,,BKN,0.01,WUHU21623XXSP,2013-01-25 11:29:00,
2013-01-25 13:34:00,55.0,49.0,29.58,South,180,7.4,18.3,80,0.02,,BKN,0.02,WUHU21623XXSP,2013-01-25 11:34:00,
2013-01-25 13:39:00,55.0,49.6,29.57,SSW,202,4.0,18.3,82,0.02,,BKN,0.02,WUHU21623XXSP,2013-01-25 11:39:00,
2013-01-25 13:44:00,54.9,49.5,29.57,SSE,157,8.1,15.0,82,0.02,-RA,,0.02,WUHU21623XXSP,2013-01-25 11:44:00,
2013-01-25 13:49:00,54.9,49.5,29.57,SSW,202,7.6,15.0,82,0.02,-RA,,0.02,WUHU21623XXSP,2013-01-25 11:49:00,
2013-01-25 13:54:00,54.9,49.5,29.57,SSW,202,2.8,13.1,82,0.02,-RA,,0.02,WUHU21623XXSP,2013-01-25 11:54:00,
2013-01-25 13:59:00,55.0,49.9,29.56,SE,135,1.0,11.8,83,0.02,-RA,,0.02,WUHU21623XXSP,2013-01-25 11:59:00,
2013-01-25 14:04:00,55.4,50.7,29.56,South,180,5.6,8.6,84,0.02,-RA,,0.02,WUHU21623XXSP,2013-01-25 12:04:00,
2013-01-25 14:09:00,55.8,50.7,29.55,South,180,5.6,8.6,83,0.02,-RA,,0.02,WUHU21623XXSP,2013-01-25 12:09:00,
2013-01-25 14:14:00,55.9,50.2,29.55,South,180,4.7,11.8,81,0.02,-RA,,0.02,WUHU21623XXSP,2013-01-25 12:14:00,
2013-01-25 14:19:00,55.9,49.9,29.55,SSW,202,13.5,13.5,80,0.02,-RA,,0.02,WUHU21623XXSP,2013-01-25 12:19:00,
2013-01-25 14:24:00,56.3,49.3,29.54,South,180,6.6,15.0,77,0.01,-RA,,0.02,WUHU21623XXSP,2013-01-25 12:24:00,
2013-01-25 14:29:00,56.7,48.6,29.54,South,180,11.8,15.9,74,0.01,-RA,,0.02,WUHU21623XXSP,2013-01-25 12:29:00,
2013-01-25 14:34:00,56.8,48.3,29.54,SSW,202,5.9,15.9,73,0.00,-RA,,0.02,WUHU21623XXSP,2013-01-25 12:34:00,
2013-01-25 14:39:00,57.0,48.2,29.54,SW,225,15.9,22.9,72,0.00,-RA,,0.02,WUHU21623XXSP,2013-01-25 12:39:00,
2013-01-25 14:44:00,57.4,48.2,29.53,SSE,157,6.4,22.9,71,0.00,-RA,,0.02,WUHU21623XXSP,2013-01-25 12:44:00,
2013-01-25 14:49:00,57.6,48.0,29.53,SSE,157,10.3,27.8,70,0.00,-RA,,0.02,WUHU21623XXSP,2013-01-25 12:49:00,
2013-01-25 14:54:00,57.6,47.6,29.53,SSW,202,21.9,27.8,69,0.00,-RA,,0.02,WUHU21623XXSP,2013-01-25 12:54:00,
2013-01-25 14:59:00,57.6,47.2,29.53,West,270,21.7,28.3,68,0.02,-RA,,0.04,WUHU21623XXSP,2013-01-25 12:59:00,
2013-01-25 15:04:00,57.6,47.2,29.53,SE,135,17.3,28.3,68,0.02,-RA,,0.04,WUHU21623XXSP,2013-01-25 13:04:00,
2013-01-25 15:09:00,57.6,47.2,29.53,SSE,157,12.5,30.8,68,0.02,-RA,,0.04,WUHU21623XXSP,2013-01-25 13:09:00,
2013-01-25 15:14:00,57.6,47.2,29.53,SE,135,13.5,30.8,68,0.02,-RA,,0.04,WUHU21623XXSP,2013-01-25 13:14:00,
2013-01-25 15:19:00,57.6,47.2,29.52,South,180,17.9,28.0,68,0.02,-RA,,0.04,WUHU21623XXSP,2013-01-25 13:19:00,
2013-01-25 15:24:00,57.6,46.9,29.52,SSW,202,8.9,31.8,67,0.02,,OVC,0.04,WUHU21623XXSP,2013-01-25 13:24:00,
2013-01-25 15:29:00,57.6,46.9,29.52,SSW,202,19.1,31.8,67,0.02,,OVC,0.04,WUHU21623XXSP,2013-01-25 13:29:00,
2013-01-25 15:34:00,57.6,46.9,29.51,South,180,17.3,26.6,67,0.02,,OVC,0.04,WUHU21623XXSP,2013-01-25 13:34:00,
2013-01-25 15:39:00,57.7,47.0,29.52,SE,135,13.8,34.0,67,0.02,,OVC,0.04,WUHU21623XXSP,2013-01-25 13:39:00,
2013-01-25 15:44:00,57.7,47.3,29.52,SSE,157,15.9,34.0,68,0.02,,OVC,0.04,WUHU21623XXSP,2013-01-25 13:44:00,
2013-01-25 15:49:00,57.7,47.3,29.52,West,270,12.3,28.0,68,0.02,,OVC,0.04,WUHU21623XXSP,2013-01-25 13:49:00,
2013-01-25 15:54:00,57.7,47.3,29.52,SW,225,17.3,28.3,68,0.00,,OVC,0.04,WUHU21623XXSP,2013-01-25 13:54:00,
2013-01-25 15:59:00,57.4,47.4,29.52,South,180,10.8,28.3,69,0.00,,OVC,0.04,WUHU21623XXSP,2013-01-25 13:59:00,
2013-01-25 16:04:00,56.8,47.6,29.52,SSE,157,11.3,26.6,71,0.01,,OVC,0.05,WUHU21623XXSP,2013-01-25 14:04:00,
2013-01-25 16:27:00,52.3,46.0,29.54,SW,225,12.3,12.3,79,0.01,RA,,0.05,WUHU21623XXSP,2013-01-25 14:27:00,
2013-01-25 17:27:00,52.0,49.1,29.53,SSE,158,12.5,12.5,90,0.00,RA,,0.20,WUHU21623XXSP,2013-01-25 15:27:00,
2013-01-25 18:24:00,52.7,49.8,29.50,South,180,11.6,11.6,90,0.00,RA,,0.50,WUHU21623XXSP,2013-01-25 16:24:00,
2013-01-25 18:29:00,52.7,48.3,29.51,South,180,0.0,14.3,85,0.00,RA,,0.55,WUHU21623XXSP,2013-01-25 16:29:00,
2013-01-25 18:34:00,53.1,48.7,29.51,SW,225,4.0,14.3,85,0.00,RA,,0.55,WUHU21623XXSP,2013-01-25 16:34:00,
2013-01-25 18:39:00,53.2,48.8,29.51,SW,225,2.4,12.8,85,0.00,RA,,0.55,WUHU21623XXSP,2013-01-25 16:39:00,
2013-01-25 18:44:00,53.2,48.8,29.52,SSE,157,2.4,11.6,85,0.00,RA,,0.55,WUHU21623XXSP,2013-01-25 16:44:00,
2013-01-25 18:49:00,53.2,48.8,29.52,WSW,247,3.2,11.6,85,0.00,,OVC,0.55,WUHU21623XXSP,2013-01-25 16:49:00,
2013-01-25 18:54:00,53.2,48.8,29.52,SSW,202,1.4,8.6,85,0.00,,OVC,0.55,WUHU21623XXSP,2013-01-25 16:54:00,
2013-01-25 18:59:00,53.2,48.8,29.52,WSW,247,6.4,6.6,85,0.00,,OVC,0.55,WUHU21623XXSP,2013-01-25 16:59:00,
2013-01-25 19:04:00,53.4,49.0,29.52,West,270,0.0,7.6,85,0.00,,OVC,0.55,WUHU21623XXSP,2013-01-25 17:04:00,
2013-01-25 19:09:00,53.4,49.0,29.52,SW,225,3.4,11.1,85,0.00,,OVC,0.55,WUHU21623XXSP,2013-01-25 17:09:00,
2013-01-25 19:14:00,53.6,49.2,29.52,West,270,7.2,11.1,85,0.00,,OVC,0.55,WUHU21623XXSP,2013-01-25 17:14:00,
2013-01-25 19:19:00,53.8,49.4,29.52,South,180,5.6,14.5,85,0.00,,OVC,0.55,WUHU21623XXSP,2013-01-25 17:19:00,
2013-01-25 19:24:00,53.8,49.1,29.52,SSE,157,6.2,14.5,84,0.00,,OVC,0.55,WUHU21623XXSP,2013-01-25 17:24:00,
2013-01-25 19:29:00,54.0,49.0,29.53,WSW,247,3.4,12.8,83,0.00,,OVC,0.55,WUHU21623XXSP,2013-01-25 17:29:00,
2013-01-25 19:34:00,54.0,48.7,29.53,SSW,202,4.2,11.8,82,0.00,,OVC,0.55,WUHU21623XXSP,2013-01-25 17:34:00,
2013-01-25 19:39:00,54.1,48.4,29.53,WSW,247,1.2,12.5,81,0.00,,OVC,0.55,WUHU21623XXSP,2013-01-25 17:39:00,
2013-01-25 19:44:00,54.1,48.1,29.53,SSE,157,4.9,15.9,80,0.00,,OVC,0.55,WUHU21623XXSP,2013-01-25 17:44:00,
2013-01-25 20:25:00,53.8,45.8,29.55,South,180,10.6,10.6,74,0.00,,OVC,0.55,WUHU21623XXSP,2013-01-25 18:25:00,
2013-01-25 20:30:00,53.8,46.1,29.55,SSE,157,4.7,25.3,75,0.00,,OVC,0.55,WUHU21623XXSP,2013-01-25 18:30:00,
2013-01-25 20:35:00,53.8,46.1,29.55,SW,225,7.2,25.3,75,0.00,,OVC,0.55,WUHU21623XXSP,2013-01-25 18:35:00,
2013-01-25 20:40:00,53.8,46.5,29.55,SSW,202,4.2,14.5,76,0.00,,OVC,0.55,WUHU21623XXSP,2013-01-25 18:40:00,
2013-01-25 20:45:00,53.8,46.5,29.54,South,180,10.1,14.5,76,0.00,,OVC,0.55,WUHU21623XXSP,2013-01-25 18:45:00,
2013-01-25 20:50:00,54.0,46.7,29.54,SW,225,13.8,22.9,76,0.00,,OVC,0.55,WUHU21623XXSP,2013-01-25 18:50:00,
2013-01-25 20:55:00,54.0,46.7,29.54,SE,135,3.2,22.9,76,0.00,,OVC,0.55,WUHU21623XXSP,2013-01-25 18:55:00,
2013-01-25 21:00:00,54.0,46.3,29.54,SSE,157,5.9,17.9,75,0.00,,OVC,0.55,WUHU21623XXSP,2013-01-25 19:00:00,
2013-01-25 21:05:00,54.1,46.4,29.54,SSW,202,7.6,17.9,75,0.00,,OVC,0.55,WUHU21623XXSP,2013-01-25 19:05:00,
2013-01-25 21:10:00,54.1,46.4,29.54,SSW,202,7.4,16.7,75,0.00,,OVC,0.55,WUHU21623XXSP,2013-01-25 19:10:00,
2013-01-25 21:15:00,54.3,46.3,29.54,WSW,247,9.6,19.1,74,0.00,,OVC,0.55,WUHU21623XXSP,2013-01-25 19:15:00,
2013-01-25 21:20:00,54.3,46.3,29.54,South,180,1.0,19.1,74,0.00,,OVC,0.55,WUHU21623XXSP,2013-01-25 19:20:00,
2013-01-25 21:25:00,54.3,46.3,29.54,SSW,202,7.4,13.1,74,0.00,,OVC,0.55,WUHU21623XXSP,2013-01-25 19:25:00,
2013-01-25 21:30:00,54.5,46.8,29.54,SW,225,6.9,14.5,75,0.00,,OVC,0.55,WUHU21623XXSP,2013-01-25 19:30:00,
2013-01-25 21:35:00,54.5,46.5,29.54,SW,225,6.9,18.9,74,0.00,,OVC,0.55,WUHU21623XXSP,2013-01-25 19:35:00,
2013-01-25 21:40:00,54.3,46.3,29.54,SSW,202,9.8,18.9,74,0.00,,OVC,0.55,WUHU21623XXSP,2013-01-25 19:40:00,
2013-01-25 21:45:00,54.5,46.8,29.54,SW,225,8.6,15.7,75,0.00,,OVC,0.55,WUHU21623XXSP,2013-01-25 19:45:00,
2013-01-25 21:50:00,54.5,46.8,29.54,SSW,202,4.9,15.7,75,0.00,,OVC,0.55,WUHU21623XXSP,2013-01-25 19:50:00,
2013-01-25 21:55:00,54.5,46.8,29.54,ENE,67,6.9,12.1,75,0.00,,OVC,0.55,WUHU21623XXSP,2013-01-25 19:55:00,
2013-01-25 22:00:00,54.5,46.8,29.54,South,180,11.6,14.5,75,0.00,,OVC,0.55,WUHU21623XXSP,2013-01-25 20:00:00,
2013-01-25 22:05:00,54.7,47.0,29.53,South,180,5.9,14.5,75,0.00,,OVC,0.55,WUHU21623XXSP,2013-01-25 20:05:00,
2013-01-25 22:10:00,54.7,47.0,29.53,South,180,9.8,15.0,75,0.00,,OVC,0.55,WUHU21623XXSP,2013-01-25 20:10:00,
2013-01-25 22:15:00,54.7,47.0,29.53,SE,135,7.9,18.5,75,0.00,,OVC,0.55,WUHU21623XXSP,2013-01-25 20:15:00,
2013-01-25 22:20:00,54.5,46.5,29.52,South,180,8.9,18.5,74,0.00,,OVC,0.55,WUHU21623XXSP,2013-01-25 20:20:00,
2013-01-25 22:25:00,54.5,46.8,29.52,SW,225,9.1,14.3,75,0.00,,OVC,0.55,WUHU21623XXSP,2013-01-25 20:25:00,
2013-01-25 22:30:00,54.3,47.0,29.52,SE,135,0.0,10.3,76,0.00,,OVC,0.55,WUHU21623XXSP,2013-01-25 20:30:00,
2013-01-25 22:35:00,54.3,47.3,29.52,SSW,202,2.2,9.8,77,0.00,,OVC,0.55,WUHU21623XXSP,2013-01-25 20:35:00,
2013-01-25 22:40:00,54.3,47.3,29.52,SSE,157,10.8,10.8,77,0.00,,OVC,0.55,WUHU21623XXSP,2013-01-25 20:40:00,
2013-01-25 22:45:00,54.5,47.5,29.52,SSE,157,8.1,14.3,77,0.00,,OVC,0.55,WUHU21623XXSP,2013-01-25 20:45:00,
2013-01-25 22:50:00,54.5,47.2,29.52,SE,135,6.9,19.1,76,0.00,,OVC,0.55,WUHU21623XXSP,2013-01-25 20:50:00,
2013-01-25 22:55:00,54.5,46.8,29.52,West,270,7.2,21.7,75,0.00,,OVC,0.55,WUHU21623XXSP,2013-01-25 20:55:00,
2013-01-25 23:00:00,54.3,46.3,29.52,WSW,247,1.2,21.7,74,0.00,,OVC,0.55,WUHU21623XXSP,2013-01-25 21:00:00,
2013-01-25 23:05:00,54.1,45.7,29.53,SSE,157,6.9,18.3,73,0.00,,OVC,0.55,WUHU21623XXSP,2013-01-25 21:05:00,
2013-01-25 23:27:00,53.6,44.2,29.53,SE,135,3.0,3.0,70,0.00,,OVC,0.55,WUHU21623XXSP,2013-01-25 21:27:00,